Regional Weather Roundup
Issued by NWS Charleston, SC

Current Version | Previous Version | Graphics & Text | Print | Product List | Glossary On
Versions: 1 2 3 4 5 6 7 8 9 10 11 12 13 14 15 16 17 18 19 20 21 22 23 24 25 26 27 28 29 30 31 32 33 34 35 36 37 38 39 40 41 42 43 44 45 46 47 48 49 50
000 ASUS42 KCHS 220512 RWRCHS Regional Weather Roundup National Weather Service Charleston SC 100 AM EDT SUN APR 22 2018 NOTE: "fair" indicates few or no clouds below 12,000 feet with no significant weather and/or obstructions to visibility. Not all stations are quality controlled. Use data with caution, especially dewpoint observations. SCZ027-030-031-034>040-042>050-220600- ...Southeast South Carolina... CITY SKY/WX TMP DP RH WIND PRES REMARKS N Charleston FAIR 58 53 84 E6 30.31F Waterfront Prk NOT AVBL Mount Pleasant FAIR 61 55 82 E6 30.32F Johns Island FAIR 61 57 88 NE9 30.31F Pinopolis N/A 55 52 88 E6 30.24S Moncks Corner FAIR 55 48 76 E5 30.32F Summerville FAIR 55 50 82 E3 30.33S Beaufort MCAS CLOUDY 63 58 83 E9 30.29F Beaufort Arpt FAIR 63 55 77 E13G20 30.29F Hilton Head Is FAIR 64 59 82 E8G17 30.29F Walterboro FAIR 55 52 88 E7 30.32S Allendale CLOUDY 61 52 72 CALM 30.30S ...Southern Midlands and Pee Dee... CITY SKY/WX TMP DP RH WIND PRES REMARKS Georgetown FAIR 55 55 100 E3 30.34F Kingstree FAIR 52 48 87 E5 30.34S Orangeburg MOCLDY 57 49 74 SE7 30.32S Barnwell CLOUDY 61 52 72 E9 30.31S Aiken CLOUDY 59 50 72 SE7 30.34S Manning FAIR 48 45 87 CALM 30.33S Columbia FAIR 58 51 78 E3 30.32S Sumter FAIR 54 46 74 CALM 30.32R Florence FAIR 53 46 77 E3 30.35R Myrtle Beach FAIR 60 50 69 E9 30.36S N Myrtle Beach FAIR 61 48 62 SE5 30.35R $$ GAZ063-065-086>088-099>101-113>116-118-119-134>141-150-220600- ...Southeast Georgia... CITY SKY/WX TMP DP RH WIND PRES REMARKS Savannah Arpt FAIR 62 56 80 E8 30.29S Hunter AAF FAIR 63 57 80 E12 30.25F Fort Stewart FAIR 59 54 84 NE3 30.26S Statesboro MOCLDY 63 50 64 SE5 30.29S Sylvania CLOUDY 61 55 82 E3 30.31R Claxton FAIR 61 55 81 NE5 30.28S ...CSRA, Central and far Southeast Georgia... CITY SKY/WX TMP DP RH WIND PRES REMARKS Thomson CLOUDY 63 53 70 S6 30.33S Augusta-Bush CLOUDY 62 52 69 SE6 30.29S Augusta-Daniel CLOUDY 64 52 64 SE5 30.30S Swainsboro CLOUDY 63 54 72 E7 30.28F Vidalia FAIR 61 55 82 E6 30.27S Eastman CLOUDY 65 48 55 E9 30.27F Hazlehurst FAIR 63 54 72 E8 30.23F Alma CLOUDY 62 56 80 E5 30.23F Waycross FAIR 61 58 90 E6 30.23F Jesup NOT AVBL Baxley MOCLDY 61 59 94 E6 30.25S Brunswick FAIR 63 57 82 E8 30.26S Saint Simons FAIR 66 61 84 E13 30.25F $$ SCZ027-028-034-036>038-045-046-048>050-GAZ119-141-220600- ...Lake and Supplemental Coastal Observations... STATION/POSITION TIME TEMP WIND PRES WAVE SWELL AIR SEA DIR/SP/G HT/PER HT/PER/DIR (UTC) (F) (DEG/KT/KT) (MB) (FT/S) (FT/S/D) Winyah Bay 0345 61 90/ 10 1028.0 Lake Murray 0420 60 120/ 3/ 6 1026.1R ACE Basin NERRS 0345 61 350/ 3 N/A Fort Pulaski 0448 65 65 90/ 17/ 20 1025.7F Sapelo Island 0400 64 70/ 5 1025.0 $$ ANZ835-935-AMZ111-154-330-350-352-354-370-450-454-472-220600- ...C-MAN and Buoy Observations... STATION/POSITION TIME TEMP WIND PRES WAVE SWELL AIR SEA DIR/SP/G HT/PER HT/PER/DIR (UTC) (F) (DEG/KT/KT) (MB) (FT/S) (FT/S/D) Buoy 41004 0450 67 67 80/ 16/ 19 1026.0F 4/ 6 2/100/ 8 Buoy 41008 0450 66 65 110/ 10/ 12 1024.4F 5/ 7 3/120/ 7 Folly Beach CMAN 0400 63 60/ 14/ 16 1027.2F Capers Nearshore 0408 63 63 80/ 14/ 19 1026.8F Fripp Nearshore 0408 63 63 70/ 14/ 19 1025.5F STATION/POSITION TIME TEMP WIND PRES WAVE SWELL AIR SEA DIR/SP/G HT/PER HT/PER/DIR (UTC) (F) (DEG/KT/KT) (MB) (FT/S) (FT/S/D) 5E St. Marys GA 0430 66 N/A 6/ 7 Frying Pan Buoy 0450 66 69 80/ 12/ 17 1027.2F 4/ 5 2/ 60/ 8 Buoy 41025 0500 59 73 40/ 10/ 12 1029.4 Cape Lookout NC 0400 100/ 11/ 12 1029.0S Buoy 41002 0450 65 72 80/ 10/ 14 1026.7F 4/ 7 3/ 20/ 7 Buoy 41010 0450 72 76 70/ 19/ 25 1023.4F 7/ 8 2/ 60/14 St Augustine FL 0500 69 67 100/ 14/ 15 1023.2F $$

USA.gov is the U.S. government's official web portal to all federal, state and local government web resources and services.